This demonstration page uses our WeatherBlox Daily Observations layout. Learn more.

Left ArrowRight Arrow

39.12711, -84.51439

Hourly Observations for September 13, 2018

Temp ( °F °C ) Dew Point ( °F °C ) Humidity (%) Winds ( mph kmh ) Pressure ( in mb ) Visibility ( mi km ) Precip ( " mm )
12:53 am 00:53 Mostly Clear 65 18.3 65 18.3 100 100 NE 3 6 30.15 1021 9 14 0.00 0.00
1:53 am 01:53 Clear 64 17.8 64 17.8 100 100 Calm 30.15 1021 8 13 0.00 0.00
2:53 am 02:53 Mostly Clear 64 17.8 64 17.8 100 100 Calm 30.15 1021 8 13 0.00 0.00
3:53 am 03:53 Mostly Clear with Mist and Fog 63 17.2 63 17.2 100 100 Calm 30.14 1021 4 6 0.00 0.00
4:53 am 04:53 Clear with Mist and Fog 62 16.7 62 16.7 100 100 Calm 30.14 1021 6 10 0.00 0.00
5:53 am 05:53 Clear with Mist and Fog 62 16.7 62 16.7 100 100 Calm 30.14 1021 5 8 0.00 0.00
6:16 am 06:16 Clear with Mist and Fog 61 16.1 61 16.1 100 100 Calm 30.12 1020 2 3 0.00 0.00
6:21 am 06:21 Mostly Clear with Mist and Fog 61 16.1 61 16.1 100 100 Calm 30.12 1020 1 1 0.00 0.00
6:29 am 06:29 Partly Cloudy with Mist and Fog 61 16.1 61 16.1 100 100 Calm 30.12 1020 2 2 0.00 0.00
6:33 am 06:33 Mostly Cloudy with Mist and Fog 61 16.1 61 16.1 100 100 ENE 3 6 30.12 1020 3 4 0.00 0.00
6:42 am 06:42 Mostly Cloudy with Mist and Fog 61 16.1 61 16.1 100 100 Calm 30.12 1020 5 8 0.00 0.00
6:53 am 06:53 Cloudy with Mist and Fog 62 16.7 62 16.7 100 100 Calm 30.15 1021 7 11 0.00 0.00
7:53 am 07:53 Mostly Cloudy with Mist and Fog 64 17.8 64 17.8 100 100 Calm 30.16 1022 6 10 0.00 0.00
8:53 am 08:53 Mostly Cloudy 66 18.9 66 18.9 100 100 NE 3 6 30.18 1022 7 11 0.00 0.00
9:53 am 09:53 Partly Cloudy 70 21.1 67 19.4 90 90 Calm 30.18 1022 9 14 0.00 0.00
10:53 am 10:53 Partly Cloudy 75 23.9 69 20.6 82 82 VRB 3 6 30.18 1022 10 16 0.00 0.00
11:53 am 11:53 Sunny 80 26.7 71 21.7 74 74 NE 5 7 30.17 1022 10 16 0.00 0.00
12:53 pm 12:53 Partly Cloudy 82 27.8 71 21.7 69 69 Calm 30.16 1021 10 16 0.00 0.00
1:53 pm 13:53 Partly Cloudy 82 27.8 72 22.2 72 72 SSW 6 9 30.14 1021 10 16 0.00 0.00
2:53 pm 14:53 Sunny 84 28.9 70 21.1 63 63 Calm 30.11 1020 10 16 0.00 0.00
3:53 pm 15:53 Sunny 85 29.4 70 21.1 61 61 Calm 30.09 1019 10 16 0.00 0.00
4:53 pm 16:53 Sunny 86 30 69 20.6 57 57 E 5 7 30.07 1018 10 16 0.00 0.00
5:53 pm 17:53 Sunny 84 28.9 69 20.6 61 61 Calm 30.08 1019 10 16 0.00 0.00
6:53 pm 18:53 Sunny 84 28.9 71 21.7 65 65 Calm 30.07 1018 10 16 0.00 0.00
7:53 pm 19:53 Clear 75 23.9 73 22.8 94 94 Calm 30.08 1019 10 16 0.00 0.00
8:53 pm 20:53 Clear 71 21.7 71 21.7 100 100 Calm 30.09 1019 10 16 0.00 0.00
9:53 pm 21:53 Clear 69 20.6 69 20.6 100 100 Calm 30.10 1019 7 11 0.00 0.00
10:53 pm 22:53 Clear 68 20 68 20 100 100 Calm 30.10 1019 8 13 0.00 0.00
11:53 pm 23:53 Clear with Mist and Fog 67 19.4 67 19.4 100 100 Calm 30.10 1019 6 10 0.00 0.00

Powered by AerisWeather